Location: Toronto
(43.6672°N, 79.4170°W)
Time: 00:28:11
(UTC-04:00)

ISS - All Passes

Search period start: 30 March 2015 00:00
Search period end: 09 April 2015 00:00
Orbit: 396 x 406 km, 51.6° (Epoch: 29 March)

Date Brightness Start Highest point End Pass type
(mag) Time Alt. Az. Time Alt. Az. Time Alt. Az.
30 Mar - 00:42:35 10° W 00:45:42 40° NNW 00:48:48 10° NE night (unlit)
30 Mar - 02:20:13 10° NW 02:22:42 20° N 02:25:11 10° NE night (unlit)
30 Mar - 03:57:00 10° NW 03:59:49 27° NNE 04:02:39 10° ENE visible
30 Mar - 05:33:14 10° WNW 05:36:28 70° SW 05:39:40 10° SE visible
30 Mar - 22:13:54 10° S 22:16:05 17° SE 22:18:20 10° E night (unlit)
30 Mar - 23:48:58 10° WSW 23:52:12 65° NNW 23:55:27 10° NE night (unlit)
31 Mar - 01:26:25 10° WNW 01:29:03 22° N 01:31:41 10° NE night (unlit)
31 Mar - 03:03:35 10° NW 03:06:12 22° N 03:08:49 10° ENE night (unlit)
31 Mar - 04:39:49 10° NW 04:43:03 65° NNE 04:46:15 10° ESE visible
31 Mar - 06:16:57 10° W 06:19:09 17° SW 06:21:18 10° S visible
31 Mar - 22:55:31 10° SW 22:58:46 70° SE 23:02:01 10° ENE night (unlit)
01 Apr - 00:32:33 10° WNW 00:35:24 27° NNW 00:38:14 10° NE night (unlit)
01 Apr - 02:10:02 10° NW 02:12:32 20° N 02:15:00 10° NE night (unlit)
01 Apr - 03:46:26 10° NW 03:49:31 40° NNE 03:52:36 10° E visible
01 Apr - 05:22:57 10° WNW 05:25:52 31° SW 05:28:46 10° SSE visible
01 Apr - 22:02:21 10° SSW 22:05:22 36° SE 22:08:25 10° ENE night (unlit)
01 Apr - 23:38:43 10° W 23:41:46 37° NNW 23:44:51 10° NE night (unlit)
02 Apr - 01:16:19 10° NW 01:18:48 20° N 01:21:16 10° NE night (unlit)
02 Apr - 02:53:02 10° NW 02:55:55 28° NNE 02:58:47 10° E night (unlit)
02 Apr - 04:29:17 10° WNW 04:32:30 60° SW 04:35:40 10° SE visible
02 Apr - 21:09:36 10° S 21:12:01 20° SE 21:14:29 10° E visible
02 Apr - 22:44:58 10° WSW 22:48:11 58° NNW 22:51:25 10° NE night (unlit)
03 Apr - 00:22:28 10° WNW 00:25:04 21° N 00:27:39 10° NE night (unlit)
03 Apr - 01:59:33 10° NW 02:02:13 23° N 02:04:53 10° ENE night (unlit)
03 Apr - 03:35:46 10° NW 03:39:00 74° NNE 03:42:14 10° ESE night (unlit)
03 Apr - 05:13:07 10° W 05:15:04 15° SW 05:16:55 10° S night (unlit)
03 Apr - 20:18:10 10° SE 20:18:42 10° SE 20:19:22 10° ESE visible
03 Apr - 21:51:23 10° SW 21:54:38 80° SSE 21:57:55 10° ENE visible
03 Apr - 23:28:31 10° WNW 23:31:20 25° NNW 23:34:07 10° NE night (unlit)
04 Apr - 01:05:57 10° NW 01:08:27 20° N 01:10:58 10° NE night (unlit)
04 Apr - 02:42:18 10° NW 02:45:25 44° NNE 02:48:32 10° E night (unlit)
04 Apr - 04:18:54 10° WNW 04:21:43 27° SW 04:24:30 10° SSE night (unlit)
04 Apr - 20:58:03 10° SSW 21:01:09 41° SE 21:04:16 10° ENE visible
04 Apr - 22:34:34 10° W 22:37:37 34° NNW 22:40:38 10° NE visible
05 Apr - 00:12:11 10° NW 00:14:39 19° N 00:17:07 10° NE night (unlit)
05 Apr - 01:48:48 10° NW 01:51:44 30° NNE 01:54:40 10° E night (unlit)
05 Apr - 03:25:06 10° WNW 03:28:16 52° SW 03:31:25 10° SE night (unlit)
05 Apr - 20:05:07 10° S 20:07:43 22° SE 20:10:21 10° E daylight
05 Apr - 21:40:43 10° WSW 21:43:55 52° NNW 21:47:07 10° NE visible
05 Apr - 23:18:16 10° WNW 23:20:50 21° N 23:23:23 10° NE visible
06 Apr - 00:55:15 10° NW 00:57:58 24° NNE 01:00:41 10° ENE night (unlit)
06 Apr - 02:31:28 10° WNW 02:34:44 83° NE 02:37:57 10° ESE night (unlit)
06 Apr - 04:09:06 10° WSW 04:10:43 13° SW 04:12:14 10° SSW night (unlit)
06 Apr - 19:13:01 10° SSE 19:14:18 12° SE 19:15:41 10° ESE daylight
06 Apr - 20:47:01 10° WSW 20:50:17 90° ENE 20:53:33 10° ENE visible
06 Apr - 22:24:15 10° WNW 22:27:00 24° NNW 22:29:45 10° NE visible
07 Apr - 00:01:36 10° NW 00:04:08 20° N 00:06:40 10° ENE night (unlit)
07 Apr - 01:37:53 10° NW 01:41:04 48° NNE 01:44:13 10° ESE night (unlit)
07 Apr - 03:14:36 10° W 03:17:18 24° SW 03:19:57 10° SSE night (unlit)
07 Apr - 19:53:32 10° SW 19:56:42 47° SE 19:59:51 10° ENE daylight
07 Apr - 21:30:12 10° W 21:33:11 32° NNW 21:36:10 10° NE visible
07 Apr - 23:07:47 10° NW 23:10:15 19° N 23:12:43 10° NE visible
08 Apr - 00:44:20 10° NW 00:47:18 32° NNE 00:50:17 10° E night (unlit)
08 Apr - 02:20:39 10° WNW 02:23:47 45° SW 02:26:53 10° SE night (unlit)
08 Apr - 19:00:26 10° SSW 19:03:09 25° SE 19:05:55 10° E daylight
08 Apr - 20:36:14 10° WSW 20:39:24 47° NNW 20:42:35 10° NE visible
08 Apr - 22:13:48 10° WNW 22:16:21 20° N 22:18:52 10° NE visible
08 Apr - 23:50:43 10° NW 23:53:28 25° NNE 23:56:14 10° ENE visible
